Regional Weather Roundup
Issued by NWS Grand Forks, ND

Home | Current Version | Previous Version | Text Only | Print | Product List | Glossary On
Versions: 1 2 3 4 5 6 7 8 9 10 11 12 13 14 15 16 17 18 19 20 21 22 23 24 25 26 27 28 29 30 31 32 33 34 35 36 37 38 39 40 41 42 43 44 45 46 47 48 49 50
000
ASUS43 KFGF 232031
RWRFGF
PRAIRIE TO PINES  WEATHER ROUNDUP
NATIONAL WEATHER SERVICE EASTERN NORTH DAKOTA/GRAND FORKS ND
300 PM CDT WED AUG 23 2017

 **SATELLITE DATA USED TO AUGMENT SKY COVER AT AUTOMATED STATIONS**
 *****  WEATHER ACROSS EASTERN NORTH DAKOTA  *****

CITY           SKY/WX    TMP DP  RH WIND       PRES   REMARKS
GRAND FORKS    PTSUNNY   75  50  41 SE9       30.03F
GRAND FRKS AFB FAIR      75  51  42 SE9       30.03F
DEVILS LAKE    FAIR      77  50  38 S10       30.00F
FARGO          FAIR      77  49  37 E5        30.03F
WAHPETON ARPT  FAIR      73  45  35 S5        30.04F
$$

 ***** WEATHER ACROSS CENTRAL AND WESTERN NORTH DAKOTA  *****

CITY           SKY/WX    TMP DP  RH WIND       PRES   REMARKS
BISMARCK       FAIR      83  53  35 S7        29.99F
MINOT          FAIR      87  47  24 S8        29.94F
JAMESTOWN      FAIR      79  51  37 S10       30.00F
MINOT AFB      FAIR      87  45  22 SW7G21    29.92F
GARRISON         N/A     82  53  36 S9        29.97F
WILLISTON      FAIR      89  46  22 VRB5      29.95F
DICKINSON      FAIR      85  47  26 VRB3      29.98F
HETTINGER      FAIR      83  52  34 E7        30.01F
$$

 *****  OTHER AIRPORT OBSERVATIONS IN OUR AREA  *****

CITY           SKY/WX    TMP DP  RH WIND       PRES   REMARKS
WALHALLA       FAIR      64  64 100 E9        30.06R
GRAFTON AIRPOR FAIR      72  54  53 SE10G17   30.04F
VALLEY CITY AR   N/A     77  52  41 SE6G14    30.02F
CANDO          FAIR      73  52  46 S10       30.01S
CAVALIER APRT  FAIR      66  52  59 E9        30.05R
GWINNER        CLEAR     77  54  44 CALM      30.01F
SHEYENNE NWR     N/A     78  51  38 S7        29.95S
ROLLA          MOCLDY    73  52  46 NW6       30.01S
 ***** THE ABOVE OBSERVATIONS ARE NON NWS ARE NOT QUALITY
       CONTROLLED AND MAY MIS-REPORT RAIN FOR SNOW...
$$

  *****  WEATHER ACROSS NORTHERN MINNESOTA  *****

CITY           SKY/WX    TMP DP  RH WIND       PRES   REMARKS
FLAG ISLAND    LGT RAIN  57  48  72 W3        30.09F
WARROAD        FAIR      57  54  88 N3        30.12S
ROSEAU         LGT RAIN  61  54  77 NE7       30.11S
HALLOCK        FAIR      64  54  68 E8        30.07R
THF RVR FALLS  CLOUDY    66  49  54 NE8       30.08F
BAUDETTE       CLOUDY    61  51  70 NW6       30.10S
WASKISH        CLOUDY    63  52  67 W3        30.08F
CROOKSTON      FAIR      73  48  40 SE6       30.04F
STEPHEN NDAWN    N/A     68  52  56 E9          N/A
GREENBUSH NDAW   N/A     61  54  77 E6          N/A
$$
  *****  WEATHER ACROSS CENTRAL AND WEST MINNESOTA  *****

CITY           SKY/WX    TMP DP  RH WIND       PRES   REMARKS
FOSSTON        FAIR      73  54  49 NE7       30.07F
BEMIDJI        FAIR      68  48  49 NE6       30.07F
PARK RAPIDS    PTSUNNY   73  49  42 CALM      30.06F
ELBOW LAKE     FAIR      73  52  46 SW6       30.06F HAZE
WADENA         FAIR      72  52  49 CALM      30.06F
DETROIT LAKES  FAIR      72  48  43 W3        30.07F
MOORHEAD       FAIR      75  46  35 CALM      30.03F
FERGUS FALLS   FAIR      73  48  40 SE3       30.04F
MORRIS MN      FAIR      77  48  36 S5        30.05F
STAPLES        FAIR      73  45  35 N3        30.06F
$$
  *****  WEATHER ELSEWHERE ACROSS MINNESOTA  *****

CITY           SKY/WX    TMP DP  RH WIND       PRES   REMARKS
DULUTH         FAIR      65  48  54 N10       30.07S
INTRNTL FALLS  FAIR      65  48  54 NE6       30.08F
ELY            FAIR      63  41  45 CALM      30.07F
CLOQUET        FAIR      66  45  45 NW5       30.07F
WHEATON        FAIR      75  48  38 SE5       30.05F
BRAINERD       FAIR      68  50  52 CALM      30.07F
HIBBING        FAIR      64  46  52 CALM      30.07F
ALEXANDRIA     FAIR      74  49  41 SW6       30.09F
SAINT CLOUD    FAIR      74  51  44 N9        30.07F
MINNEAPOLIS    FAIR      76  52  43 N14G21    30.06F
$$

  *****  WEATHER ACROSS SOUTH DAKOTA  *****

CITY           SKY/WX    TMP DP  RH WIND       PRES   REMARKS
SIOUX FALLS    FAIR      80  58  46 S10       30.05F
BROOKINGS      FAIR      75  56  51 SE13      30.06F
WATERTOWN      FAIR      75  53  46 S13       30.05F
HURON          FAIR      80  58  46 S14G20    29.99F
SISSETON         N/A     77  56  48 S12G18    30.02F
ABERDEEN       FAIR      82  54  37 E13G18    30.00F
MITCHELL       PTSUNNY   79  58  48 S13G21    30.01F
PIERRE         FAIR      83  58  42 E6        29.94F
MOBRIDGE       FAIR      83  61  47 SE10      29.95F
RAPID CITY     FAIR      87  52  29 VRB3      30.00F
$$

  *****  SOME WEATHER IN NEARBY STATES *****

CITY           SKY/WX    TMP DP  RH WIND       PRES   REMARKS
GLASGOW MT     FAIR      89  38  16 VRB3      29.93F
GREAT FALLS MT FAIR      90  32  12 W6        29.98F
CHEYENNE WY    PTSUNNY   75  42  30 SW18G36   30.19S
SCOTTSBLUFF NE FAIR      87  61  41 E9        30.05F
OMAHA NE       FAIR      79  53  40 CALM      30.10F
DES MOINES IA  FAIR      80  49  33 W6        30.09F
DAVENPORT IA   FAIR      76  51  41 NW8G18    30.09F
CHICAGO IL     FAIR      77  50  38 NW12G21   30.02F
EAU CLAIRE WI  FAIR      71  49  45 N8        30.05F
LA CROSSE WI   FAIR      78  52  40 NW12      30.05F
$$

  *****  SOME NATIONAL WEATHER *****

CITY           SKY/WX    TMP DP  RH WIND       PRES   REMARKS
LA GUARDIA NY  PTSUNNY   81  56  42 NW13      29.82S
RALEIGH NC     PTSUNNY   82  75  79 N5        29.83F
ATLANTA GA     FAIR      87  66  49 W12       29.93F
NEW ORLEANS LA PTSUNNY   90  72  55 E8        29.91F HX  97
OKLAHOMA CITY  PTSUNNY   80  67  64 NE9       30.05F
ALBUQUERQUE NM PTSUNNY   82  56  40 W6        30.21F
SALT LAKE CITY FAIR      87  46  24 NW12G20   30.12F
LOS ANGELES CA PTSUNNY   72  62  71 W12       29.97F
BOISE ID       FAIR      89  48  24 NW7       29.99F
SEATTLE WA     PTSUNNY   68  57  68 SW6       30.03F
$$

*** WEATHER ACROSS MANITOBA...SASKATCHEWAN AND ONTARIO ***
                ***ONTARIO***

CITY           SKY/WX    TMP DP  RH WIND       PRES   REMARKS
GERALDTON      CLOUDY    57  41  54 N8G17     29.99S
THUNDER BAY    PTSUNNY   66  36  32 NW8       30.03S
SIOUX LOOKOUT  CLOUDY    61  32  33 N5        30.09S
TORONTO        PTSUNNY   73  48  40 NW22G30   29.86R
BIG TROUT LK   SUNNY     61  37  41 N10       30.07S
PICKLE LAKE    MOSUNNY   61  30  31 N9G17     30.07S
DRYDEN         CLOUDY    61  37  41 N5        30.10S
KENORA         PTSUNNY   59  41  51 N6        30.11S
$$
                *** MANITOBA***

CITY           SKY/WX    TMP DP  RH WIND       PRES   REMARKS
BRANDON        PTSUNNY   61  54  77 E22G29    30.05R
DAUPHIN        PTSUNNY   66  52  59 SE14G23   30.09S
ISLAND LAKE    MOSUNNY   61  43  51 NW2       30.14S
PILOT MOUND    NOT AVBL
THE PAS        PTSUNNY   70  50  49 E8        30.11S
THOMPSON       PTSUNNY   64  37  36 W2        30.15F
WINNIPEG       LGT RAIN  57  54  88 E7        30.12S FOG
LYNN LAKE      PTSUNNY   66  50  55 SE6       30.12F
CHURCHILL      SUNNY     59  43  55 N10       30.14S
GILLAM         SUNNY     64  39  39 NW5       30.14F
$$
                ***SASKATCHEWAN***

CITY           SKY/WX    TMP DP  RH WIND       PRES   REMARKS
ESTEVAN        MOSUNNY   86  43  22 NW8       29.94F
KINDERSLEY     MOSUNNY   84  50  30 E14G22    29.95F
LLOYDMINSTER   PTSUNNY   73  57  56 E15G23    29.97F
PRINCE ALBERT  MOSUNNY   73  50  43 SE13G18   30.06S
REGINA         MOSUNNY   82  48  30 NE7       29.97F
YORKTON        MOSUNNY   70  52  52 E16G24    30.04R
N. BATTLEFORD  SUNNY     77  52  41 E14G21    30.00F
LA RONGE       MOSUNNY   70  54  56 E6        30.06S SMOKE
SASKATOON      MOSUNNY   77  50  38 E13       30.02S
SWIFT CURRENT  SUNNY     84  43  23 E13G21    29.96F
$$
NOTE: THESE ARE AUTOMATED STATIONS WITH LIMITED QUALITY CONTROL
      "FAIR" INDICATES FEW OR NO CLOUDS BELOW 12,000 FEET WITH NO
      SIGNIFICANT WEATHER AND/OR OBSTRUCTIONS TO VISIBILITY.
      SKY/WX - SKY CONDITION AND SIGNIFICANT WEATHER.
      TMP - AIR TEMPERATURE.    DP   - DEWPOINT TEMPERATURE.
      RH  - RELATIVE HUMIDITY.  PRES - PRESSURE.
      HX  - HEAT INDEX.         WCI  - WIND CHILL INDEX.
$




USA.gov is the U.S. government's official web portal to all federal, state and local government web resources and services.